UAE062 OMDB-EDDF

Flight info

Callsign UAE062
Flight time 5h 56m
Altitude 40000
Route RIDAP M557 TUMAK L602 GADSI M860 SEPTU DCT VUSEB M860 NINVA UM860 ODALI UL852 NEGEM DCT MAXOV DCT IRLOX DCT BALUX DCT TEKNO DCT ABETI DCT TAGAS DCT SUBEN DCT AKINI T161 DEBHI DEBHI1A
Aircraft A359/H-SDE2E3GHIJ3J4J5LM1ORWXY/LB1D1

Departure

Time 2026-05-05 09:49
Airport Dubai International Airport (OMDB)

Arrival

Time 2026-05-05 15:45
Airport Frankfurt Main Airport (EDDF)
Time Latitude Longitude Altitude Speed Heading
2026-05-05 08:52 25.24875 55.36294 28 ft 0 kts 211°
2026-05-05 09:31 25.24879 55.36297 31 ft 3 kts 211°
2026-05-05 09:31 25.24902 55.36312 30 ft 4 kts 211°
2026-05-05 09:32 25.24926 55.36328 24 ft 4 kts 210°
2026-05-05 09:32 25.24947 55.36342 27 ft 4 kts 207°
2026-05-05 09:32 25.24966 55.36350 27 ft 4 kts 169°
2026-05-05 09:32 25.24973 55.36351 27 ft 4 kts 113°
2026-05-05 09:33 25.24980 55.36325 26 ft 4 kts 104°
2026-05-05 09:33 25.24987 55.36302 26 ft 1 kts 121°
2026-05-05 09:38 25.24977 55.36320 28 ft 6 kts 120°
2026-05-05 09:38 25.24942 55.36385 29 ft 13 kts 122°
2026-05-05 09:38 25.24892 55.36476 30 ft 14 kts 121°
2026-05-05 09:39 25.24825 55.36600 32 ft 14 kts 117°
2026-05-05 09:39 25.24799 55.36664 33 ft 13 kts 111°
2026-05-05 09:39 25.24775 55.36763 34 ft 13 kts 101°
2026-05-05 09:39 25.24729 55.36887 35 ft 13 kts 120°
2026-05-05 09:40 25.24697 55.36947 36 ft 13 kts 123°
2026-05-05 09:40 25.24650 55.37031 38 ft 13 kts 121°
2026-05-05 09:40 25.24600 55.37118 39 ft 13 kts 125°
2026-05-05 09:40 25.24551 55.37205 40 ft 13 kts 117°
2026-05-05 09:41 25.24504 55.37295 41 ft 14 kts 121°
2026-05-05 09:41 25.24455 55.37376 42 ft 12 kts 120°
2026-05-05 09:41 25.24398 55.37486 44 ft 13 kts 120°
2026-05-05 09:41 25.24367 55.37543 45 ft 13 kts 121°
2026-05-05 09:42 25.24322 55.37627 46 ft 13 kts 121°
2026-05-05 09:42 25.24275 55.37712 47 ft 13 kts 118°
2026-05-05 09:42 25.24295 55.37790 48 ft 11 kts 42°
2026-05-05 09:42 25.24362 55.37843 48 ft 12 kts 34°
2026-05-05 09:43 25.24429 55.37890 50 ft 11 kts 32°
2026-05-05 09:43 25.24491 55.37936 52 ft 10 kts 32°
2026-05-05 09:43 25.24548 55.37981 52 ft 11 kts 36°
2026-05-05 09:43 25.24621 55.38035 49 ft 11 kts 32°
2026-05-05 09:44 25.24630 55.38041 49 ft 0 kts 32°
2026-05-05 09:45 25.24632 55.38043 49 ft 1 kts 32°
2026-05-05 09:45 25.24649 55.38055 49 ft 4 kts 32°
2026-05-05 09:45 25.24679 55.38075 49 ft 6 kts 32°
2026-05-05 09:45 25.24717 55.38101 49 ft 7 kts 31°
2026-05-05 09:46 25.24751 55.38100 49 ft 5 kts 343°
2026-05-05 09:46 25.24782 55.38070 48 ft 7 kts 302°
2026-05-05 09:46 25.24784 55.38065 48 ft 0 kts 302°
2026-05-05 09:48 25.24806 55.38028 47 ft 25 kts 302°
2026-05-05 09:48 25.25027 55.37642 46 ft 92 kts 302°
2026-05-05 09:48 25.25466 55.36853 36 ft 148 kts 302°
2026-05-05 09:48 25.26029 55.35770 524 ft 155 kts 302°
2026-05-05 09:49 25.26513 55.34786 1195 ft 146 kts 299°
2026-05-05 09:49 25.27005 55.33785 1602 ft 156 kts 301°
2026-05-05 09:49 25.27584 55.32674 1882 ft 176 kts 301°
2026-05-05 09:49 25.28268 55.31428 2218 ft 199 kts 301°
2026-05-05 09:50 25.29022 55.30101 2454 ft 214 kts 303°
2026-05-05 09:50 25.29804 55.28645 2816 ft 224 kts 301°
2026-05-05 09:50 25.30651 55.27173 3206 ft 234 kts 308°
2026-05-05 09:50 25.31689 55.25734 3669 ft 242 kts 310°
2026-05-05 09:51 25.32747 55.24250 4262 ft 247 kts 308°
2026-05-05 09:51 25.33772 55.22742 4916 ft 248 kts 308°
2026-05-05 09:51 25.34790 55.21194 5576 ft 250 kts 307°
2026-05-05 09:51 25.35661 55.19510 6240 ft 252 kts 289°
2026-05-05 09:52 25.35889 55.17591 6671 ft 265 kts 270°
2026-05-05 09:52 25.35809 55.15499 7004 ft 280 kts 267°
2026-05-05 09:52 25.35695 55.13319 7544 ft 287 kts 267°
2026-05-05 09:52 25.35594 55.11084 8160 ft 292 kts 268°
2026-05-05 09:53 25.35574 55.08826 8809 ft 296 kts 275°
2026-05-05 09:53 25.35950 55.06598 9504 ft 298 kts 285°
2026-05-05 09:53 25.36558 55.04391 10156 ft 302 kts 289°
2026-05-05 09:53 25.37297 55.02154 10533 ft 317 kts 291°
2026-05-05 09:54 25.38129 54.99824 10851 ft 333 kts 292°
2026-05-05 09:54 25.39003 54.97427 11144 ft 348 kts 292°
2026-05-05 09:54 25.39920 54.94891 11434 ft 361 kts 292°
2026-05-05 09:54 25.40853 54.92266 11771 ft 372 kts 292°
2026-05-05 09:55 25.41792 54.89578 12281 ft 376 kts 291°
2026-05-05 09:55 25.42716 54.86902 12827 ft 379 kts 291°
2026-05-05 09:55 25.43666 54.84135 13372 ft 381 kts 291°
2026-05-05 09:55 25.44605 54.81393 13905 ft 384 kts 291°
2026-05-05 09:56 25.45556 54.78617 14389 ft 386 kts 291°
2026-05-05 09:56 25.46499 54.75866 14880 ft 389 kts 291°
2026-05-05 09:56 25.47473 54.73020 15376 ft 391 kts 291°
2026-05-05 09:56 25.48431 54.70223 15881 ft 393 kts 290°
2026-05-05 09:57 25.49396 54.67405 16380 ft 396 kts 290°
2026-05-05 09:57 25.50379 54.64535 16896 ft 398 kts 290°
2026-05-05 09:57 25.51363 54.61657 17381 ft 401 kts 290°
2026-05-05 09:57 25.52342 54.58792 17879 ft 403 kts 290°
2026-05-05 09:58 25.53340 54.55868 18330 ft 406 kts 290°
2026-05-05 09:58 25.54343 54.52926 18753 ft 409 kts 290°
2026-05-05 09:58 25.55347 54.49981 19187 ft 411 kts 290°
2026-05-05 09:58 25.56354 54.47024 19636 ft 414 kts 290°
2026-05-05 09:59 25.57374 54.44027 20081 ft 416 kts 290°
2026-05-05 09:59 25.58386 54.41051 20557 ft 418 kts 290°
2026-05-05 09:59 25.59413 54.38031 21010 ft 421 kts 290°
2026-05-05 09:59 25.60442 54.34999 21496 ft 423 kts 290°
2026-05-05 10:00 25.61485 54.31926 21970 ft 425 kts 290°
2026-05-05 10:00 25.62527 54.28852 22424 ft 428 kts 290°
2026-05-05 10:00 25.63565 54.25790 22871 ft 430 kts 290°
2026-05-05 10:00 25.64630 54.22645 23348 ft 433 kts 290°
2026-05-05 10:01 25.65687 54.19520 23743 ft 435 kts 290°
2026-05-05 10:01 25.66751 54.16374 24185 ft 436 kts 290°
2026-05-05 10:01 25.67820 54.13208 24667 ft 437 kts 289°
2026-05-05 10:01 25.68870 54.10096 25128 ft 438 kts 289°
2026-05-05 10:02 25.69939 54.06926 25611 ft 439 kts 289°
2026-05-05 10:02 25.71002 54.03770 26085 ft 441 kts 289°
2026-05-05 10:02 25.72083 54.00558 26588 ft 442 kts 289°
2026-05-05 10:02 25.73163 53.97348 27042 ft 444 kts 289°
2026-05-05 10:03 25.74239 53.94144 27526 ft 445 kts 289°
2026-05-05 10:03 25.75322 53.90918 27997 ft 447 kts 288°
2026-05-05 10:03 25.76409 53.87678 28446 ft 448 kts 288°
2026-05-05 10:03 25.77484 53.84470 28894 ft 450 kts 288°
2026-05-05 10:04 25.78572 53.81220 29300 ft 452 kts 288°
2026-05-05 10:04 25.79673 53.77931 29739 ft 454 kts 288°
2026-05-05 10:04 25.80772 53.74643 30090 ft 456 kts 288°
2026-05-05 10:04 25.81877 53.71335 30405 ft 458 kts 288°
2026-05-05 10:05 25.82984 53.68016 30706 ft 460 kts 288°
2026-05-05 10:05 25.84096 53.64683 30997 ft 461 kts 288°
2026-05-05 10:05 25.85177 53.61438 31281 ft 463 kts 288°
2026-05-05 10:05 25.86306 53.58045 31570 ft 465 kts 287°
2026-05-05 10:06 25.87433 53.54658 31961 ft 464 kts 287°
2026-05-05 10:06 25.88547 53.51310 32405 ft 461 kts 287°
2026-05-05 10:06 25.89657 53.47971 32828 ft 460 kts 287°
2026-05-05 10:06 25.90763 53.44638 33229 ft 458 kts 287°
2026-05-05 10:07 25.91865 53.41315 33631 ft 457 kts 287°
2026-05-05 10:07 25.92936 53.38079 33985 ft 455 kts 287°
2026-05-05 10:07 25.94047 53.34721 34314 ft 454 kts 287°
2026-05-05 10:07 25.95140 53.31416 34642 ft 453 kts 287°
2026-05-05 10:08 25.96220 53.28144 34963 ft 452 kts 287°
2026-05-05 10:08 25.97297 53.24881 35287 ft 450 kts 287°
2026-05-05 10:08 25.98375 53.21610 35606 ft 449 kts 287°
2026-05-05 10:08 25.99444 53.18364 35921 ft 448 kts 286°
2026-05-05 10:09 26.00506 53.15137 36212 ft 447 kts 286°
2026-05-05 10:09 26.01586 53.11855 36511 ft 446 kts 286°
2026-05-05 10:09 26.02631 53.08674 36791 ft 445 kts 286°
2026-05-05 10:09 26.03684 53.05464 37077 ft 444 kts 286°
2026-05-05 10:10 26.04752 53.02211 37368 ft 443 kts 286°
2026-05-05 10:10 26.05804 52.99001 37652 ft 442 kts 286°
2026-05-05 10:10 26.06855 52.95790 37927 ft 441 kts 286°
2026-05-05 10:10 26.07888 52.92632 38184 ft 440 kts 286°
2026-05-05 10:11 26.08944 52.89402 38440 ft 439 kts 286°
2026-05-05 10:11 26.09970 52.86261 38648 ft 438 kts 286°
2026-05-05 10:11 26.11005 52.83087 38834 ft 437 kts 286°
2026-05-05 10:11 26.12044 52.79900 39008 ft 437 kts 286°
2026-05-05 10:12 26.13080 52.76720 39174 ft 436 kts 285°
2026-05-05 10:12 26.14112 52.73550 39344 ft 436 kts 285°
2026-05-05 10:12 26.15143 52.70377 39505 ft 436 kts 285°
2026-05-05 10:12 26.16174 52.67207 39680 ft 435 kts 285°
2026-05-05 10:13 26.18224 52.60886 39782 ft 437 kts 285°
2026-05-05 10:13 26.20283 52.54531 39782 ft 436 kts 285°
2026-05-05 10:14 26.22335 52.48188 39778 ft 436 kts 285°
2026-05-05 10:14 26.24387 52.41834 39786 ft 436 kts 285°
2026-05-05 10:15 26.26421 52.35524 39783 ft 436 kts 285°
2026-05-05 10:15 26.28465 52.29169 39779 ft 436 kts 285°
2026-05-05 10:16 26.30509 52.22809 39781 ft 436 kts 285°
2026-05-05 10:16 26.32547 52.16451 39783 ft 436 kts 285°
2026-05-05 10:17 26.34574 52.10119 39783 ft 436 kts 285°
2026-05-05 10:17 26.36608 52.03756 39781 ft 436 kts 285°
2026-05-05 10:18 26.38637 51.97396 39782 ft 436 kts 285°
2026-05-05 10:18 26.40671 51.91010 39780 ft 436 kts 284°
2026-05-05 10:19 26.42705 51.84612 39781 ft 436 kts 284°
2026-05-05 10:19 26.44729 51.78234 39781 ft 435 kts 284°
2026-05-05 10:20 26.46732 51.71910 39780 ft 435 kts 284°
2026-05-05 10:20 26.48741 51.65559 39785 ft 434 kts 284°
2026-05-05 10:21 26.50745 51.59213 39780 ft 433 kts 284°
2026-05-05 10:21 26.52735 51.52898 39774 ft 432 kts 284°
2026-05-05 10:22 26.54716 51.46600 39778 ft 432 kts 284°
2026-05-05 10:22 26.56713 51.40237 39772 ft 431 kts 284°
2026-05-05 10:23 26.58693 51.33923 39781 ft 431 kts 284°
2026-05-05 10:23 26.60654 51.27657 39779 ft 430 kts 284°
2026-05-05 10:24 26.62629 51.21335 39785 ft 430 kts 283°
2026-05-05 10:24 26.64589 51.15048 39769 ft 430 kts 283°
2026-05-05 10:25 26.66553 51.08738 39778 ft 430 kts 283°
2026-05-05 10:25 26.68514 51.02428 39781 ft 431 kts 283°
2026-05-05 10:26 26.70482 50.96084 39767 ft 431 kts 283°
2026-05-05 10:26 26.72443 50.89751 39780 ft 431 kts 283°
2026-05-05 10:27 26.74396 50.83431 39769 ft 432 kts 283°
2026-05-05 10:27 26.76358 50.77073 39777 ft 432 kts 283°
2026-05-05 10:28 26.78314 50.70723 39783 ft 432 kts 283°
2026-05-05 10:28 26.80810 50.64541 39765 ft 443 kts 295°
2026-05-05 10:29 26.84409 50.58963 39772 ft 450 kts 301°
2026-05-05 10:29 26.88427 50.53526 39778 ft 451 kts 302°
2026-05-05 10:30 26.92446 50.48144 39778 ft 451 kts 302°
2026-05-05 10:30 26.96718 50.42937 39775 ft 455 kts 306°
2026-05-05 10:31 27.01142 50.37858 39776 ft 455 kts 306°
2026-05-05 10:31 27.05492 50.32785 39775 ft 454 kts 305°
2026-05-05 10:32 27.09808 50.27630 39579 ft 453 kts 304°
2026-05-05 10:32 27.11979 50.24995 39353 ft 452 kts 304°
2026-05-05 10:32 27.14090 50.22427 39291 ft 453 kts 304°
2026-05-05 10:33 27.18877 50.17703 39560 ft 465 kts 313°
2026-05-05 10:33 27.21472 50.15502 39720 ft 465 kts 314°
2026-05-05 10:33 27.24081 50.13335 39777 ft 467 kts 314°
2026-05-05 10:34 27.29319 50.09035 39778 ft 466 kts 314°
2026-05-05 10:34 27.34534 50.04749 39779 ft 466 kts 314°
2026-05-05 10:35 27.39733 50.00387 39774 ft 464 kts 313°
2026-05-05 10:35 27.44750 49.95934 39776 ft 463 kts 312°
2026-05-05 10:36 27.49831 49.91399 39774 ft 463 kts 312°
2026-05-05 10:36 27.54853 49.86951 39773 ft 463 kts 312°
2026-05-05 10:37 27.59921 49.82480 39775 ft 462 kts 312°
2026-05-05 10:37 27.64985 49.78011 39770 ft 462 kts 312°
2026-05-05 10:38 27.70007 49.73572 39771 ft 462 kts 312°
2026-05-05 10:38 27.75040 49.69116 39772 ft 462 kts 312°
2026-05-05 10:39 27.80130 49.64607 39773 ft 462 kts 312°
2026-05-05 10:39 27.85168 49.60113 39771 ft 461 kts 311°
2026-05-05 10:40 27.90189 49.55616 39772 ft 461 kts 311°
2026-05-05 10:40 27.95195 49.51131 39768 ft 461 kts 311°
2026-05-05 10:41 28.00222 49.46628 39767 ft 461 kts 311°
2026-05-05 10:41 28.05242 49.42127 39768 ft 461 kts 311°
2026-05-05 10:42 28.12684 49.35324 39766 ft 460 kts 310°
2026-05-05 10:43 28.17665 49.30756 39763 ft 461 kts 310°
2026-05-05 10:43 28.22659 49.26183 39763 ft 461 kts 310°
2026-05-05 10:44 28.27637 49.21628 39762 ft 461 kts 311°
2026-05-05 10:44 28.32642 49.17048 39767 ft 461 kts 310°
2026-05-05 10:45 28.37584 49.12506 39771 ft 461 kts 310°
2026-05-05 10:45 28.42815 49.08177 39752 ft 468 kts 315°
2026-05-05 10:46 28.48209 49.04022 39763 ft 468 kts 315°
2026-05-05 10:46 28.53620 48.99889 39766 ft 468 kts 315°
2026-05-05 10:47 28.59003 48.95766 39761 ft 468 kts 315°
2026-05-05 10:47 28.64373 48.91639 39757 ft 468 kts 315°
2026-05-05 10:48 28.69767 48.87485 39767 ft 469 kts 315°
2026-05-05 10:48 28.75172 48.83317 39759 ft 469 kts 315°
2026-05-05 10:49 28.80559 48.79159 39759 ft 469 kts 315°
2026-05-05 10:49 28.86008 48.74980 39761 ft 470 kts 315°
2026-05-05 10:50 28.91392 48.70858 39763 ft 470 kts 315°
2026-05-05 10:50 28.96826 48.66692 39764 ft 470 kts 315°
2026-05-05 10:51 29.02244 48.62529 39761 ft 470 kts 315°
2026-05-05 10:51 29.07623 48.58390 39760 ft 470 kts 315°
2026-05-05 10:52 29.13043 48.54214 39760 ft 470 kts 315°
2026-05-05 10:52 29.18467 48.50029 39767 ft 470 kts 315°
2026-05-05 10:53 29.23884 48.45846 39769 ft 470 kts 315°
2026-05-05 10:53 29.29270 48.41680 39770 ft 470 kts 315°
2026-05-05 10:54 29.34690 48.37482 39773 ft 470 kts 315°
2026-05-05 10:54 29.40110 48.33280 39773 ft 471 kts 315°
2026-05-05 10:55 29.45560 48.29085 39774 ft 474 kts 317°
2026-05-05 10:55 29.51308 48.25260 39770 ft 480 kts 320°
2026-05-05 10:56 29.57119 48.21593 39765 ft 480 kts 320°
2026-05-05 10:56 29.62945 48.17835 39766 ft 479 kts 320°
2026-05-05 10:57 29.68751 48.14017 39769 ft 479 kts 319°
2026-05-05 10:57 29.74474 48.10229 39770 ft 479 kts 319°
2026-05-05 10:58 29.80269 48.06390 39768 ft 479 kts 319°
2026-05-05 10:58 29.86040 48.02565 39770 ft 479 kts 319°
2026-05-05 10:59 29.91800 47.98744 39767 ft 479 kts 319°
2026-05-05 10:59 29.97568 47.94913 39768 ft 479 kts 319°
2026-05-05 11:00 30.02926 47.90558 39763 ft 459 kts 306°
2026-05-05 11:00 30.07196 47.85288 39758 ft 451 kts 301°
2026-05-05 11:01 30.11300 47.79807 39752 ft 450 kts 300°
2026-05-05 11:01 30.15376 47.74307 39760 ft 451 kts 301°
2026-05-05 11:02 30.19463 47.68817 39761 ft 451 kts 301°
2026-05-05 11:02 30.23539 47.63357 39754 ft 451 kts 301°
2026-05-05 11:03 30.27635 47.57867 39774 ft 451 kts 301°
2026-05-05 11:03 30.31727 47.52374 39767 ft 451 kts 301°
2026-05-05 11:04 30.35832 47.46854 39772 ft 451 kts 301°
2026-05-05 11:04 30.39918 47.41351 39772 ft 452 kts 301°
2026-05-05 11:05 30.43993 47.35857 39771 ft 452 kts 301°
2026-05-05 11:05 30.48092 47.30322 39767 ft 452 kts 300°
2026-05-05 11:06 30.52183 47.24790 39771 ft 452 kts 300°
2026-05-05 11:06 30.56355 47.19312 39770 ft 459 kts 305°
2026-05-05 11:07 30.61229 47.14431 39766 ft 468 kts 310°
2026-05-05 11:07 30.66292 47.09699 39767 ft 469 kts 310°
2026-05-05 11:08 30.71413 47.04955 39772 ft 470 kts 310°
2026-05-05 11:08 30.76498 47.00215 39773 ft 470 kts 310°
2026-05-05 11:09 30.81572 46.95463 39766 ft 470 kts 310°
2026-05-05 11:09 30.86656 46.90690 39766 ft 470 kts 310°
2026-05-05 11:10 30.91756 46.85895 39775 ft 471 kts 310°
2026-05-05 11:10 30.96836 46.81113 39763 ft 471 kts 310°
2026-05-05 11:11 31.01949 46.76294 39763 ft 471 kts 310°
2026-05-05 11:11 31.07019 46.71509 39769 ft 472 kts 310°
2026-05-05 11:12 31.12112 46.66696 39768 ft 472 kts 310°
2026-05-05 11:12 31.17205 46.61876 39768 ft 472 kts 310°
2026-05-05 11:13 31.22319 46.57029 39773 ft 471 kts 310°
2026-05-05 11:13 31.27368 46.52237 39772 ft 471 kts 310°
2026-05-05 11:14 31.32451 46.47404 39775 ft 471 kts 310°
2026-05-05 11:14 31.37531 46.42569 39777 ft 470 kts 310°
2026-05-05 11:15 31.42596 46.37741 39788 ft 470 kts 309°
2026-05-05 11:15 31.47628 46.32937 39792 ft 469 kts 309°
2026-05-05 11:16 31.52682 46.28104 39799 ft 469 kts 309°
2026-05-05 11:16 31.57722 46.23278 39809 ft 468 kts 309°
2026-05-05 11:17 31.62746 46.18461 39813 ft 468 kts 309°
2026-05-05 11:17 31.67777 46.13629 39829 ft 468 kts 309°
2026-05-05 11:18 31.72820 46.08780 39827 ft 468 kts 309°
2026-05-05 11:18 31.77821 46.03949 39831 ft 467 kts 309°
2026-05-05 11:19 31.82777 45.99030 39836 ft 466 kts 308°
2026-05-05 11:19 31.87736 45.94072 39835 ft 467 kts 308°
2026-05-05 11:20 31.92666 45.89158 39838 ft 467 kts 308°
2026-05-05 11:20 31.97631 45.84216 39838 ft 467 kts 308°
2026-05-05 11:21 32.02584 45.79281 39545 ft 467 kts 308°
2026-05-05 11:21 32.05075 45.76798 39333 ft 467 kts 308°
2026-05-05 11:21 32.07546 45.74331 39111 ft 467 kts 308°
2026-05-05 11:21 32.09968 45.71911 38904 ft 467 kts 308°
2026-05-05 11:22 32.12483 45.69397 38656 ft 467 kts 308°
2026-05-05 11:22 32.14947 45.66931 38140 ft 467 kts 308°
2026-05-05 11:22 32.17427 45.64448 37876 ft 466 kts 309°
2026-05-05 11:23 32.22377 45.59485 37853 ft 467 kts 308°
2026-05-05 11:23 32.27341 45.54500 37844 ft 467 kts 308°
2026-05-05 11:24 32.32280 45.49536 37858 ft 466 kts 308°
2026-05-05 11:24 32.37177 45.44608 37858 ft 465 kts 308°
2026-05-05 11:25 32.42108 45.39637 37856 ft 464 kts 308°
2026-05-05 11:25 32.46997 45.34700 37862 ft 463 kts 308°
2026-05-05 11:26 32.51902 45.29739 37861 ft 462 kts 308°
2026-05-05 11:26 32.56995 45.25013 37866 ft 471 kts 314°
2026-05-05 11:27 32.62394 45.20664 37868 ft 472 kts 315°
2026-05-05 11:27 32.67860 45.16350 37870 ft 472 kts 315°
2026-05-05 11:28 32.73334 45.12023 37874 ft 472 kts 315°
2026-05-05 11:28 32.78789 45.07689 37870 ft 472 kts 315°
2026-05-05 11:29 32.84200 45.03377 37877 ft 472 kts 315°
2026-05-05 11:29 32.89645 44.99031 37874 ft 472 kts 315°
2026-05-05 11:30 32.95052 44.94711 37878 ft 471 kts 315°
2026-05-05 11:30 33.00493 44.90357 37875 ft 470 kts 315°
2026-05-05 11:31 33.05916 44.86009 37862 ft 471 kts 315°
2026-05-05 11:31 33.11362 44.81636 37878 ft 471 kts 314°
2026-05-05 11:32 33.16790 44.77272 37877 ft 471 kts 314°
2026-05-05 11:32 33.21532 44.73916 37878 ft 487 kts 324°
2026-05-05 11:32 33.25839 44.72097 37874 ft 502 kts 333°
2026-05-05 11:33 33.28078 44.71364 37883 ft 504 kts 334°
2026-05-05 11:33 33.36055 44.69017 37872 ft 507 kts 335°
2026-05-05 11:34 33.41770 44.67387 37876 ft 507 kts 335°
2026-05-05 11:34 33.49754 44.65064 37871 ft 507 kts 335°
2026-05-05 11:35 33.55458 44.63376 38036 ft 509 kts 335°
2026-05-05 11:35 33.58934 44.62347 38380 ft 507 kts 335°
2026-05-05 11:35 33.62307 44.61350 38664 ft 505 kts 335°
2026-05-05 11:35 33.65719 44.60338 38849 ft 505 kts 335°
2026-05-05 11:36 33.69142 44.59320 39008 ft 506 kts 335°
2026-05-05 11:36 33.72553 44.58305 39191 ft 506 kts 335°
2026-05-05 11:36 33.75987 44.57282 39355 ft 506 kts 335°
2026-05-05 11:36 33.79401 44.56265 39524 ft 507 kts 335°
2026-05-05 11:37 33.82809 44.55250 39687 ft 507 kts 335°
2026-05-05 11:37 33.86246 44.54225 39820 ft 508 kts 335°
2026-05-05 11:37 33.89674 44.53201 39857 ft 509 kts 335°
2026-05-05 11:38 33.96558 44.51146 39861 ft 508 kts 335°
2026-05-05 11:38 34.03400 44.49100 39860 ft 508 kts 335°
2026-05-05 11:39 34.10262 44.47043 39861 ft 508 kts 335°
2026-05-05 11:39 34.17096 44.44991 39854 ft 508 kts 335°
2026-05-05 11:40 34.23962 44.42926 39856 ft 509 kts 335°
2026-05-05 11:40 34.30838 44.40854 39853 ft 509 kts 335°
2026-05-05 11:41 34.37718 44.38778 39855 ft 509 kts 335°
2026-05-05 11:41 34.44564 44.36708 39853 ft 510 kts 335°
2026-05-05 11:42 34.51423 44.34632 39849 ft 510 kts 336°
2026-05-05 11:42 34.58325 44.32539 39849 ft 510 kts 336°
2026-05-05 11:43 34.65188 44.30454 39840 ft 511 kts 336°
2026-05-05 11:43 34.72045 44.28367 39843 ft 511 kts 336°
2026-05-05 11:44 34.79021 44.26241 39849 ft 511 kts 336°
2026-05-05 11:44 34.85887 44.24144 39846 ft 512 kts 336°
2026-05-05 11:45 34.92841 44.22017 39837 ft 512 kts 336°
2026-05-05 11:45 34.99763 44.19895 39835 ft 512 kts 336°
2026-05-05 11:46 35.06639 44.17785 39836 ft 513 kts 336°
2026-05-05 11:46 35.13600 44.15644 39833 ft 513 kts 336°
2026-05-05 11:47 35.20522 44.13512 39838 ft 513 kts 336°
2026-05-05 11:47 35.27466 44.11369 39836 ft 514 kts 336°
2026-05-05 11:48 35.37801 44.08172 39849 ft 514 kts 336°
2026-05-05 11:48 35.44771 44.06012 39848 ft 515 kts 336°
2026-05-05 11:49 35.51711 44.03858 39846 ft 515 kts 336°
2026-05-05 11:49 35.58605 44.01713 39843 ft 515 kts 336°
2026-05-05 11:50 35.65563 43.99544 39840 ft 516 kts 336°
2026-05-05 11:50 35.72537 43.97367 39841 ft 516 kts 337°
2026-05-05 11:51 35.79502 43.95188 39840 ft 517 kts 337°
2026-05-05 11:51 35.86423 43.93019 39845 ft 517 kts 337°
2026-05-05 11:52 35.93409 43.90826 39845 ft 518 kts 337°
2026-05-05 11:52 36.00404 43.88627 39848 ft 518 kts 337°
2026-05-05 11:53 36.07350 43.86438 39852 ft 518 kts 337°
2026-05-05 11:53 36.14393 43.84215 39850 ft 519 kts 337°
2026-05-05 11:54 36.21341 43.82019 39857 ft 519 kts 338°
2026-05-05 11:54 36.28359 43.79554 39857 ft 511 kts 330°
2026-05-05 11:55 36.34941 43.76298 39847 ft 509 kts 329°
2026-05-05 11:55 36.41490 43.72900 39860 ft 509 kts 329°
2026-05-05 11:56 36.48022 43.69485 39865 ft 510 kts 329°
2026-05-05 11:56 36.54511 43.66099 39876 ft 510 kts 329°
2026-05-05 11:57 36.61073 43.62679 39880 ft 511 kts 329°
2026-05-05 11:57 36.67622 43.59260 39885 ft 511 kts 329°
2026-05-05 11:58 36.74144 43.55850 39896 ft 511 kts 330°
2026-05-05 11:58 36.80661 43.52337 39901 ft 511 kts 328°
2026-05-05 11:59 36.87127 43.48676 39906 ft 511 kts 328°
2026-05-05 11:59 36.93601 43.45009 39918 ft 512 kts 328°
2026-05-05 12:00 37.00108 43.41348 39939 ft 512 kts 328°
2026-05-05 12:00 37.06594 43.37707 39927 ft 511 kts 329°
2026-05-05 12:01 37.13086 43.34056 39939 ft 512 kts 329°
2026-05-05 12:01 37.19598 43.30387 39943 ft 512 kts 329°
2026-05-05 12:02 37.26056 43.26739 39942 ft 512 kts 329°
2026-05-05 12:02 37.32252 43.22540 39961 ft 499 kts 316°
2026-05-05 12:03 37.37025 43.16514 39976 ft 479 kts 298°
2026-05-05 12:03 37.40379 43.09363 39966 ft 474 kts 291°
2026-05-05 12:04 37.43446 43.02077 39961 ft 474 kts 291°
2026-05-05 12:04 37.46505 42.94752 39951 ft 472 kts 291°
2026-05-05 12:05 37.49592 42.87428 39960 ft 474 kts 291°
2026-05-05 12:05 37.52676 42.80133 39954 ft 476 kts 291°
2026-05-05 12:06 37.55794 42.72757 39956 ft 478 kts 291°
2026-05-05 12:06 37.58916 42.65350 39949 ft 478 kts 291°
2026-05-05 12:07 37.62038 42.57958 39946 ft 479 kts 291°
2026-05-05 12:07 37.65142 42.50571 39945 ft 479 kts 292°
2026-05-05 12:08 37.68264 42.43126 39943 ft 479 kts 291°
2026-05-05 12:08 37.71371 42.35695 39937 ft 479 kts 291°
2026-05-05 12:09 37.74482 42.28239 39935 ft 480 kts 292°
2026-05-05 12:09 37.77586 42.20793 39940 ft 480 kts 292°
2026-05-05 12:10 37.80676 42.13359 39938 ft 481 kts 292°
2026-05-05 12:10 37.83786 42.05856 39937 ft 481 kts 292°
2026-05-05 12:11 37.86897 41.98339 39934 ft 481 kts 292°
2026-05-05 12:11 37.90009 41.90859 39931 ft 483 kts 294°
2026-05-05 12:12 37.94001 41.83997 39930 ft 491 kts 304°
2026-05-05 12:12 37.98499 41.77448 39919 ft 494 kts 306°
2026-05-05 12:13 38.03079 41.70924 39926 ft 495 kts 306°
2026-05-05 12:13 38.07613 41.64433 39928 ft 495 kts 306°
2026-05-05 12:14 38.12163 41.57876 39927 ft 495 kts 306°
2026-05-05 12:14 38.16698 41.51314 39929 ft 495 kts 306°
2026-05-05 12:15 38.21238 41.44730 39926 ft 495 kts 306°
2026-05-05 12:15 38.25786 41.38120 39926 ft 496 kts 306°
2026-05-05 12:16 38.30324 41.31515 39925 ft 495 kts 306°
2026-05-05 12:16 38.34811 41.24971 39931 ft 495 kts 306°
2026-05-05 12:17 38.39351 41.18337 39924 ft 496 kts 306°
2026-05-05 12:17 38.43876 41.11709 39935 ft 496 kts 306°
2026-05-05 12:18 38.48403 41.05048 39934 ft 496 kts 306°
2026-05-05 12:18 38.52785 40.98359 39941 ft 495 kts 305°
2026-05-05 12:19 38.57165 40.91589 39933 ft 495 kts 305°
2026-05-05 12:19 38.61548 40.84836 39940 ft 495 kts 305°
2026-05-05 12:20 38.65966 40.78081 39940 ft 495 kts 306°
2026-05-05 12:20 38.70408 40.71386 39920 ft 495 kts 306°
2026-05-05 12:21 38.74867 40.64661 39922 ft 496 kts 306°
2026-05-05 12:21 38.79314 40.57922 39932 ft 496 kts 306°
2026-05-05 12:22 38.83772 40.51144 39933 ft 496 kts 306°
2026-05-05 12:22 38.88184 40.44423 39930 ft 496 kts 306°
2026-05-05 12:23 38.92640 40.37619 39929 ft 496 kts 306°
2026-05-05 12:23 38.97081 40.30823 39931 ft 497 kts 306°
2026-05-05 12:24 39.01494 40.24055 39928 ft 497 kts 306°
2026-05-05 12:24 39.05934 40.17234 39924 ft 497 kts 306°
2026-05-05 12:25 39.10366 40.10409 39932 ft 498 kts 306°
2026-05-05 12:25 39.14808 40.03554 39933 ft 498 kts 306°
2026-05-05 12:26 39.19250 39.96684 39933 ft 499 kts 306°
2026-05-05 12:26 39.23684 39.89808 39933 ft 499 kts 306°
2026-05-05 12:27 39.28116 39.82913 39934 ft 500 kts 306°
2026-05-05 12:27 39.32513 39.76060 39932 ft 500 kts 306°
2026-05-05 12:28 39.36956 39.69121 39937 ft 500 kts 306°
2026-05-05 12:28 39.41380 39.62197 39929 ft 500 kts 306°
2026-05-05 12:29 39.45807 39.55253 39918 ft 500 kts 306°
2026-05-05 12:29 39.50231 39.48299 39920 ft 501 kts 306°
2026-05-05 12:30 39.54606 39.41370 39915 ft 500 kts 306°
2026-05-05 12:30 39.58951 39.34347 39909 ft 500 kts 306°
2026-05-05 12:31 39.63297 39.27297 39916 ft 501 kts 306°
2026-05-05 12:31 39.67665 39.20221 39910 ft 501 kts 306°
2026-05-05 12:32 39.72020 39.13161 39910 ft 502 kts 306°
2026-05-05 12:32 39.76405 39.06115 39906 ft 502 kts 306°
2026-05-05 12:33 39.80793 38.99141 39902 ft 502 kts 306°
2026-05-05 12:33 39.85216 38.92091 39903 ft 503 kts 306°
2026-05-05 12:34 39.89658 38.84978 39899 ft 503 kts 306°
2026-05-05 12:34 39.94072 38.77889 39897 ft 503 kts 306°
2026-05-05 12:35 39.98483 38.70787 39898 ft 503 kts 306°
2026-05-05 12:35 40.02853 38.63737 39902 ft 504 kts 306°
2026-05-05 12:36 40.07253 38.56622 39903 ft 504 kts 307°
2026-05-05 12:36 40.11659 38.49481 39901 ft 504 kts 307°
2026-05-05 12:37 40.16055 38.42341 39903 ft 504 kts 307°
2026-05-05 12:37 40.20419 38.35234 39910 ft 504 kts 307°
2026-05-05 12:38 40.24806 38.28075 39916 ft 504 kts 307°
2026-05-05 12:38 40.29190 38.20905 39928 ft 505 kts 307°
2026-05-05 12:39 40.33116 38.13357 39936 ft 500 kts 294°
2026-05-05 12:39 40.35866 38.04995 39947 ft 499 kts 290°
2026-05-05 12:40 40.38392 37.96576 39962 ft 499 kts 289°
2026-05-05 12:40 40.40907 37.88081 39967 ft 499 kts 289°
2026-05-05 12:41 40.43425 37.79617 39973 ft 499 kts 289°
2026-05-05 12:41 40.45957 37.71120 39981 ft 499 kts 289°
2026-05-05 12:42 40.48467 37.62695 39986 ft 498 kts 289°
2026-05-05 12:42 40.50979 37.54225 39993 ft 498 kts 289°
2026-05-05 12:43 40.53486 37.45735 39995 ft 498 kts 289°
2026-05-05 12:43 40.55983 37.37257 39995 ft 497 kts 289°
2026-05-05 12:44 40.58459 37.28823 39994 ft 497 kts 289°
2026-05-05 12:44 40.60941 37.20342 39997 ft 497 kts 289°
2026-05-05 12:45 40.63418 37.11854 39985 ft 496 kts 289°
2026-05-05 12:45 40.65882 37.03382 39997 ft 496 kts 289°
2026-05-05 12:46 40.68340 36.94903 39990 ft 496 kts 289°
2026-05-05 12:46 40.70788 36.86429 39991 ft 496 kts 289°
2026-05-05 12:47 40.73227 36.77958 40004 ft 496 kts 290°
2026-05-05 12:47 40.75668 36.69457 39995 ft 496 kts 289°
2026-05-05 12:48 40.78110 36.60943 39993 ft 496 kts 290°
2026-05-05 12:48 40.80534 36.52438 39998 ft 496 kts 289°
2026-05-05 12:49 40.82941 36.43963 39995 ft 495 kts 289°
2026-05-05 12:49 40.85348 36.35464 39993 ft 495 kts 289°
2026-05-05 12:50 40.87759 36.26928 39991 ft 495 kts 289°
2026-05-05 12:50 40.90156 36.18413 39983 ft 494 kts 289°
2026-05-05 12:51 40.92541 36.09912 39978 ft 494 kts 289°
2026-05-05 12:51 40.94912 36.01427 39974 ft 494 kts 289°
2026-05-05 12:52 40.97291 35.92890 39967 ft 494 kts 289°
2026-05-05 12:52 40.99664 35.84359 39956 ft 493 kts 289°
2026-05-05 12:53 41.02012 35.75894 39954 ft 493 kts 289°
2026-05-05 12:53 41.04369 35.67349 39952 ft 493 kts 289°
2026-05-05 12:54 41.07884 35.54559 39950 ft 492 kts 289°
2026-05-05 12:55 41.10216 35.46038 39951 ft 492 kts 289°
2026-05-05 12:55 41.12531 35.37552 39950 ft 492 kts 289°
2026-05-05 12:56 41.14845 35.29044 39952 ft 492 kts 289°
2026-05-05 12:56 41.17166 35.20481 39951 ft 491 kts 289°
2026-05-05 12:57 41.19453 35.12014 39949 ft 491 kts 289°
2026-05-05 12:57 41.21746 35.03494 39948 ft 491 kts 289°
2026-05-05 12:58 41.24037 34.94952 39951 ft 491 kts 289°
2026-05-05 12:58 41.26325 34.86394 39946 ft 490 kts 289°
2026-05-05 12:59 41.28605 34.77867 39949 ft 490 kts 289°
2026-05-05 12:59 41.30865 34.69365 39948 ft 490 kts 289°
2026-05-05 13:00 41.34255 34.56555 39945 ft 490 kts 289°
2026-05-05 13:01 41.38760 34.39442 39950 ft 489 kts 290°
2026-05-05 13:01 41.40986 34.30953 39947 ft 489 kts 290°
2026-05-05 13:02 41.43203 34.22407 39952 ft 488 kts 289°
2026-05-05 13:02 41.45408 34.13833 39956 ft 488 kts 289°
2026-05-05 13:03 41.47597 34.05337 39960 ft 488 kts 289°
2026-05-05 13:03 41.49803 33.96755 39962 ft 488 kts 289°
2026-05-05 13:04 41.51994 33.88198 39966 ft 488 kts 289°
2026-05-05 13:04 41.54183 33.79624 39974 ft 488 kts 289°
2026-05-05 13:05 41.56342 33.71135 39981 ft 488 kts 289°
2026-05-05 13:05 41.58529 33.62509 39980 ft 488 kts 289°
2026-05-05 13:06 41.60697 33.53942 39993 ft 487 kts 289°
2026-05-05 13:06 41.62869 33.45360 40012 ft 487 kts 289°
2026-05-05 13:07 41.65000 33.36833 40001 ft 487 kts 289°
2026-05-05 13:07 41.67136 33.28256 40012 ft 486 kts 289°
2026-05-05 13:08 41.68901 33.21159 40006 ft 485 kts 289°
2026-05-05 13:08 41.71391 33.11121 40008 ft 485 kts 289°
2026-05-05 13:09 41.73151 33.03998 40027 ft 485 kts 289°
2026-05-05 13:09 41.75613 32.94026 40026 ft 485 kts 289°
2026-05-05 13:10 41.77714 32.85454 40024 ft 484 kts 289°
2026-05-05 13:10 41.79803 32.76899 40027 ft 483 kts 289°
2026-05-05 13:11 41.81543 32.69780 40027 ft 483 kts 289°
2026-05-05 13:11 41.83608 32.61258 40028 ft 482 kts 289°
2026-05-05 13:12 41.86008 32.51306 40029 ft 481 kts 289°
2026-05-05 13:12 41.87720 32.44194 40026 ft 481 kts 290°
2026-05-05 13:13 41.89761 32.35657 40024 ft 481 kts 289°
2026-05-05 13:13 41.91793 32.27169 40025 ft 480 kts 290°
2026-05-05 13:14 41.93857 32.18580 40027 ft 480 kts 290°
2026-05-05 13:14 41.95865 32.10109 40029 ft 479 kts 289°
2026-05-05 13:15 41.97876 32.01566 40029 ft 479 kts 289°
2026-05-05 13:15 41.99883 31.93024 40029 ft 479 kts 289°
2026-05-05 13:16 42.01888 31.84492 40030 ft 479 kts 289°
2026-05-05 13:16 42.03889 31.75945 40025 ft 479 kts 289°
2026-05-05 13:17 42.05881 31.67396 40028 ft 479 kts 289°
2026-05-05 13:17 42.07857 31.58885 40030 ft 479 kts 289°
2026-05-05 13:18 42.09853 31.50259 40030 ft 479 kts 289°
2026-05-05 13:18 42.11830 31.41682 40029 ft 480 kts 289°
2026-05-05 13:19 42.13806 31.33102 40030 ft 480 kts 289°
2026-05-05 13:19 42.15757 31.24561 40036 ft 480 kts 289°
2026-05-05 13:20 42.17715 31.15955 40035 ft 480 kts 289°
2026-05-05 13:20 42.19668 31.07344 40037 ft 480 kts 289°
2026-05-05 13:21 42.21610 30.98753 40038 ft 480 kts 289°
2026-05-05 13:21 42.23540 30.90179 40045 ft 480 kts 289°
2026-05-05 13:22 42.25479 30.81536 40046 ft 480 kts 289°
2026-05-05 13:22 42.27418 30.72855 40042 ft 479 kts 289°
2026-05-05 13:23 42.29335 30.64237 40044 ft 480 kts 289°
2026-05-05 13:23 42.31249 30.55600 40049 ft 480 kts 288°
2026-05-05 13:24 42.33145 30.47013 40050 ft 480 kts 288°
2026-05-05 13:24 42.35046 30.38364 40053 ft 480 kts 288°
2026-05-05 13:25 42.36942 30.29704 40056 ft 480 kts 288°
2026-05-05 13:25 42.38831 30.21043 40056 ft 480 kts 288°
2026-05-05 13:26 42.40702 30.12429 40056 ft 480 kts 288°
2026-05-05 13:26 42.42581 30.03741 40059 ft 480 kts 288°
2026-05-05 13:27 42.44443 29.95099 40062 ft 480 kts 288°
2026-05-05 13:27 42.46839 29.86659 40063 ft 476 kts 301°
2026-05-05 13:28 42.50606 29.79320 40063 ft 474 kts 309°
2026-05-05 13:28 42.54663 29.72344 40065 ft 474 kts 310°
2026-05-05 13:29 42.58808 29.65298 40068 ft 474 kts 310°
2026-05-05 13:29 42.62894 29.58289 40070 ft 475 kts 310°
2026-05-05 13:30 42.66942 29.51291 40069 ft 475 kts 309°
2026-05-05 13:30 42.71053 29.44160 40071 ft 475 kts 309°
2026-05-05 13:31 42.75109 29.37106 40071 ft 475 kts 309°
2026-05-05 13:31 42.79177 29.30020 40075 ft 475 kts 309°
2026-05-05 13:32 42.83247 29.22911 40077 ft 475 kts 309°
2026-05-05 13:32 42.87298 29.15820 40073 ft 475 kts 309°
2026-05-05 13:33 42.91341 29.08726 40077 ft 475 kts 309°
2026-05-05 13:33 42.95391 29.01603 40072 ft 476 kts 309°
2026-05-05 13:34 42.99449 28.94447 40075 ft 476 kts 309°
2026-05-05 13:34 43.03486 28.87311 40072 ft 476 kts 309°
2026-05-05 13:35 43.07531 28.80144 40074 ft 476 kts 309°
2026-05-05 13:35 43.11572 28.72968 40076 ft 476 kts 309°
2026-05-05 13:36 43.15607 28.65784 40076 ft 476 kts 309°
2026-05-05 13:36 43.19618 28.58626 40074 ft 476 kts 309°
2026-05-05 13:37 43.23643 28.51424 40073 ft 476 kts 309°
2026-05-05 13:37 43.27687 28.44172 40073 ft 476 kts 308°
2026-05-05 13:38 43.31687 28.36980 40069 ft 476 kts 308°
2026-05-05 13:38 43.35691 28.29762 40070 ft 476 kts 308°
2026-05-05 13:39 43.39705 28.22510 40068 ft 476 kts 308°
2026-05-05 13:39 43.43657 28.15353 40064 ft 476 kts 308°
2026-05-05 13:40 43.47680 28.08048 40061 ft 476 kts 308°
2026-05-05 13:40 43.51687 28.00755 40056 ft 476 kts 308°
2026-05-05 13:41 43.55670 27.93431 40053 ft 476 kts 308°
2026-05-05 13:41 43.59658 27.86155 40051 ft 476 kts 308°
2026-05-05 13:42 43.63682 27.78959 40046 ft 476 kts 310°
2026-05-05 13:42 43.67915 27.71856 40038 ft 476 kts 311°
2026-05-05 13:43 43.72107 27.64834 40032 ft 476 kts 310°
2026-05-05 13:43 43.76278 27.57753 40031 ft 475 kts 310°
2026-05-05 13:44 43.80449 27.50616 40033 ft 475 kts 310°
2026-05-05 13:44 43.84583 27.43517 40029 ft 475 kts 310°
2026-05-05 13:45 43.88563 27.36253 39956 ft 474 kts 305°
2026-05-05 13:45 43.92140 27.28556 39817 ft 474 kts 291°
2026-05-05 13:46 43.93555 27.24436 39513 ft 477 kts 297°
2026-05-05 13:46 43.95431 27.20630 39491 ft 474 kts 314°
2026-05-05 13:46 43.97759 27.17476 39703 ft 472 kts 319°
2026-05-05 13:46 44.00199 27.14451 39935 ft 471 kts 318°
2026-05-05 13:47 44.04854 27.07998 40031 ft 475 kts 313°
2026-05-05 13:47 44.09111 27.01000 40029 ft 475 kts 309°
2026-05-05 13:48 44.13193 26.93818 40030 ft 475 kts 309°
2026-05-05 13:48 44.17276 26.86585 40025 ft 475 kts 309°
2026-05-05 13:49 44.21377 26.79359 40014 ft 475 kts 309°
2026-05-05 13:49 44.25493 26.72122 40022 ft 475 kts 309°
2026-05-05 13:50 44.29568 26.64945 40017 ft 475 kts 309°
2026-05-05 13:50 44.33666 26.57704 40018 ft 475 kts 309°
2026-05-05 13:51 44.37820 26.50345 40016 ft 475 kts 309°
2026-05-05 13:51 44.41903 26.43094 40014 ft 475 kts 309°
2026-05-05 13:52 44.45988 26.35820 40016 ft 475 kts 309°
2026-05-05 13:52 44.50072 26.28529 40015 ft 475 kts 309°
2026-05-05 13:53 44.54123 26.21281 40023 ft 475 kts 308°
2026-05-05 13:53 44.58186 26.13989 40021 ft 475 kts 308°
2026-05-05 13:54 44.62255 26.06670 40021 ft 475 kts 308°
2026-05-05 13:54 44.66314 25.99352 40013 ft 475 kts 308°
2026-05-05 13:55 44.70343 25.92069 40015 ft 475 kts 308°
2026-05-05 13:55 44.74404 25.84708 40011 ft 475 kts 308°
2026-05-05 13:56 44.78455 25.77347 40008 ft 475 kts 308°
2026-05-05 13:56 44.82469 25.70033 40001 ft 475 kts 308°
2026-05-05 13:57 44.86505 25.62661 40003 ft 475 kts 308°
2026-05-05 13:57 44.90529 25.55293 40003 ft 474 kts 308°
2026-05-05 13:58 44.94546 25.47917 40000 ft 474 kts 308°
2026-05-05 13:58 44.98544 25.40558 39999 ft 474 kts 308°
2026-05-05 13:59 45.04561 25.29568 40002 ft 474 kts 309°
2026-05-05 14:00 45.09844 25.19587 40005 ft 473 kts 308°
2026-05-05 14:00 45.14544 25.10930 39997 ft 473 kts 308°
2026-05-05 14:01 45.18548 25.03541 40003 ft 472 kts 308°
2026-05-05 14:01 45.22495 24.96186 40001 ft 472 kts 308°
2026-05-05 14:02 45.26458 24.88755 40003 ft 471 kts 308°
2026-05-05 14:02 45.30406 24.81333 40002 ft 471 kts 307°
2026-05-05 14:03 45.34346 24.73906 40003 ft 470 kts 307°
2026-05-05 14:03 45.38239 24.66550 40001 ft 470 kts 307°
2026-05-05 14:04 45.42163 24.59119 39997 ft 469 kts 307°
2026-05-05 14:04 45.46084 24.51674 39992 ft 469 kts 307°
2026-05-05 14:05 45.50001 24.44215 39994 ft 469 kts 307°
2026-05-05 14:05 45.53878 24.36814 39988 ft 469 kts 307°
2026-05-05 14:06 45.57779 24.29347 39991 ft 469 kts 307°
2026-05-05 14:06 45.61662 24.21897 39991 ft 469 kts 307°
2026-05-05 14:07 45.65106 24.14013 39992 ft 469 kts 299°
2026-05-05 14:07 45.68194 24.05778 39992 ft 470 kts 298°
2026-05-05 14:08 45.71216 23.97518 39993 ft 470 kts 298°
2026-05-05 14:08 45.74223 23.89282 39993 ft 470 kts 298°
2026-05-05 14:09 45.77267 23.80954 39990 ft 470 kts 298°
2026-05-05 14:09 45.80276 23.72712 39991 ft 469 kts 298°
2026-05-05 14:10 45.83291 23.64428 39985 ft 469 kts 298°
2026-05-05 14:10 45.86308 23.56112 39977 ft 469 kts 298°
2026-05-05 14:11 45.89310 23.47810 39978 ft 469 kts 298°
2026-05-05 14:11 45.92286 23.39554 39970 ft 468 kts 298°
2026-05-05 14:12 45.95265 23.31266 39971 ft 468 kts 297°
2026-05-05 14:12 45.98247 23.22943 39969 ft 468 kts 297°
2026-05-05 14:13 46.01230 23.14589 39969 ft 468 kts 297°
2026-05-05 14:13 46.04175 23.06319 39968 ft 468 kts 297°
2026-05-05 14:14 46.07131 22.97992 39972 ft 468 kts 297°
2026-05-05 14:14 46.10090 22.89630 39967 ft 468 kts 297°
2026-05-05 14:15 46.13046 22.81250 39971 ft 468 kts 297°
2026-05-05 14:15 46.15994 22.72866 39985 ft 469 kts 297°
2026-05-05 14:16 46.18917 22.64528 39968 ft 469 kts 297°
2026-05-05 14:16 46.21851 22.56131 39969 ft 469 kts 297°
2026-05-05 14:17 46.24787 22.47702 39983 ft 469 kts 297°
2026-05-05 14:17 46.27693 22.39333 39969 ft 469 kts 297°
2026-05-05 14:18 46.30606 22.30915 39960 ft 469 kts 297°
2026-05-05 14:18 46.33522 22.22465 39961 ft 469 kts 296°
2026-05-05 14:19 46.36431 22.14006 39975 ft 469 kts 296°
2026-05-05 14:19 46.39314 22.05597 39972 ft 469 kts 296°
2026-05-05 14:20 46.42202 21.97145 39969 ft 469 kts 296°
2026-05-05 14:20 46.45090 21.88666 39958 ft 468 kts 296°
2026-05-05 14:21 46.47956 21.80226 39946 ft 468 kts 296°
2026-05-05 14:21 46.50364 21.73111 39956 ft 468 kts 296°
2026-05-05 14:22 46.53688 21.63260 39937 ft 468 kts 296°
2026-05-05 14:22 46.56082 21.56142 39948 ft 468 kts 296°
2026-05-05 14:23 46.58929 21.47651 39935 ft 468 kts 296°
2026-05-05 14:23 46.61772 21.39145 39929 ft 468 kts 295°
2026-05-05 14:24 46.64618 21.30603 39948 ft 468 kts 295°
2026-05-05 14:24 46.67420 21.22163 39948 ft 467 kts 295°
2026-05-05 14:25 46.70274 21.13540 39943 ft 467 kts 295°
2026-05-05 14:25 46.73072 21.05056 39924 ft 467 kts 295°
2026-05-05 14:26 46.75872 20.96542 39936 ft 467 kts 295°
2026-05-05 14:26 46.78692 20.87934 39934 ft 467 kts 295°
2026-05-05 14:27 46.81489 20.79373 39937 ft 467 kts 295°
2026-05-05 14:27 46.84267 20.70839 39935 ft 467 kts 295°
2026-05-05 14:28 46.87064 20.62216 39934 ft 467 kts 295°
2026-05-05 14:28 46.89839 20.53635 39917 ft 467 kts 294°
2026-05-05 14:29 46.92611 20.45033 39919 ft 467 kts 294°
2026-05-05 14:29 46.95399 20.36354 39926 ft 467 kts 294°
2026-05-05 14:30 46.98147 20.27769 39927 ft 467 kts 294°
2026-05-05 14:30 47.00892 20.19164 39942 ft 467 kts 294°
2026-05-05 14:31 47.03605 20.10631 39946 ft 467 kts 294°
2026-05-05 14:31 47.06372 20.01900 39942 ft 467 kts 294°
2026-05-05 14:32 47.09071 19.93354 39940 ft 467 kts 294°
2026-05-05 14:32 47.11877 19.84438 39923 ft 467 kts 294°
2026-05-05 14:33 47.14576 19.75831 39920 ft 467 kts 294°
2026-05-05 14:33 47.17311 19.67081 39937 ft 467 kts 294°
2026-05-05 14:34 47.20007 19.58424 39920 ft 468 kts 293°
2026-05-05 14:34 47.22779 19.49493 39922 ft 468 kts 293°
2026-05-05 14:35 47.25511 19.40660 39929 ft 468 kts 293°
2026-05-05 14:35 47.28179 19.32004 39931 ft 467 kts 293°
2026-05-05 14:36 47.30866 19.23256 39937 ft 467 kts 293°
2026-05-05 14:36 47.33494 19.14528 39936 ft 467 kts 290°
2026-05-05 14:37 47.35356 19.05339 39930 ft 466 kts 284°
2026-05-05 14:37 47.36950 18.96129 39924 ft 466 kts 283°
2026-05-05 14:38 47.38514 18.86843 39916 ft 465 kts 283°
2026-05-05 14:38 47.40079 18.77560 39909 ft 465 kts 283°
2026-05-05 14:39 47.41614 18.68461 39905 ft 465 kts 283°
2026-05-05 14:39 47.43191 18.59078 39905 ft 464 kts 283°
2026-05-05 14:40 47.44753 18.49739 39901 ft 464 kts 283°
2026-05-05 14:40 47.46292 18.40478 39902 ft 464 kts 282°
2026-05-05 14:41 47.47821 18.31230 39901 ft 463 kts 282°
2026-05-05 14:41 47.49355 18.21894 39894 ft 463 kts 282°
2026-05-05 14:42 47.50859 18.12697 39894 ft 463 kts 282°
2026-05-05 14:42 47.52367 18.03424 39887 ft 463 kts 282°
2026-05-05 14:43 47.53861 17.94191 39885 ft 463 kts 282°
2026-05-05 14:43 47.55354 17.84909 39884 ft 462 kts 282°
2026-05-05 14:44 47.56824 17.75711 39882 ft 462 kts 282°
2026-05-05 14:44 47.58299 17.66440 39886 ft 462 kts 282°
2026-05-05 14:45 47.59761 17.57195 39883 ft 461 kts 282°
2026-05-05 14:45 47.61213 17.47962 39878 ft 461 kts 282°
2026-05-05 14:46 47.62646 17.38803 39880 ft 461 kts 282°
2026-05-05 14:46 47.63971 17.29426 39868 ft 460 kts 279°
2026-05-05 14:47 47.64981 17.21741 39856 ft 460 kts 279°
2026-05-05 14:47 47.66236 17.12269 39856 ft 460 kts 279°
2026-05-05 14:48 47.67524 17.03046 39844 ft 460 kts 283°
2026-05-05 14:48 47.69707 16.93978 39851 ft 461 kts 290°
2026-05-05 14:49 47.72131 16.85149 39844 ft 461 kts 290°
2026-05-05 14:49 47.74556 16.76425 39832 ft 461 kts 290°
2026-05-05 14:50 47.77002 16.67546 39828 ft 460 kts 290°
2026-05-05 14:50 47.79398 16.58780 39818 ft 460 kts 290°
2026-05-05 14:51 47.81793 16.49966 39813 ft 460 kts 290°
2026-05-05 14:51 47.84188 16.41117 39806 ft 461 kts 290°
2026-05-05 14:52 47.86579 16.32262 39805 ft 461 kts 290°
2026-05-05 14:52 47.88956 16.23426 39800 ft 461 kts 290°
2026-05-05 14:53 47.91345 16.14508 39795 ft 462 kts 289°
2026-05-05 14:53 47.93704 16.05666 39791 ft 462 kts 289°
2026-05-05 14:54 47.96080 15.96727 39788 ft 462 kts 289°
2026-05-05 14:54 47.98433 15.87843 39782 ft 462 kts 289°
2026-05-05 14:55 48.00805 15.78849 39773 ft 462 kts 289°
2026-05-05 14:55 48.03139 15.69969 39770 ft 463 kts 289°
2026-05-05 14:56 48.05154 15.60854 39764 ft 462 kts 284°
2026-05-05 14:56 48.06854 15.51575 39762 ft 464 kts 283°
2026-05-05 14:57 48.08504 15.42275 39756 ft 464 kts 283°
2026-05-05 14:57 48.10158 15.32920 39753 ft 465 kts 283°
2026-05-05 14:58 48.11811 15.23567 39745 ft 465 kts 283°
2026-05-05 14:58 48.13446 15.14290 39744 ft 465 kts 283°
2026-05-05 14:59 48.15092 15.04900 39737 ft 464 kts 283°
2026-05-05 14:59 48.16710 14.95615 39733 ft 464 kts 282°
2026-05-05 15:00 48.18074 14.87752 39736 ft 464 kts 282°
2026-05-05 15:00 48.19929 14.77002 39730 ft 463 kts 282°
2026-05-05 15:01 48.21553 14.67531 39732 ft 463 kts 282°
2026-05-05 15:01 48.23153 14.58155 39725 ft 463 kts 282°
2026-05-05 15:02 48.24736 14.48825 39736 ft 463 kts 282°
2026-05-05 15:02 48.26310 14.39501 39728 ft 463 kts 282°
2026-05-05 15:03 48.27881 14.30141 39753 ft 463 kts 282°
2026-05-05 15:03 48.29443 14.20786 39755 ft 463 kts 282°
2026-05-05 15:04 48.31001 14.11402 39740 ft 463 kts 281°
2026-05-05 15:04 48.32555 14.01991 39751 ft 463 kts 281°
2026-05-05 15:05 48.34875 13.87846 39739 ft 463 kts 281°
2026-05-05 15:06 48.36411 13.78415 39737 ft 462 kts 281°
2026-05-05 15:06 48.37931 13.69025 39737 ft 462 kts 281°
2026-05-05 15:07 48.39458 13.59545 39739 ft 462 kts 281°
2026-05-05 15:07 48.40959 13.50163 39743 ft 462 kts 281°
2026-05-05 15:08 48.42458 13.40749 39743 ft 462 kts 281°
2026-05-05 15:08 48.44207 13.31486 39745 ft 465 kts 288°
2026-05-05 15:09 48.46558 13.22305 39741 ft 465 kts 288°
2026-05-05 15:09 48.48941 13.13292 39743 ft 465 kts 288°
2026-05-05 15:10 48.51334 13.04230 39745 ft 465 kts 288°
2026-05-05 15:10 48.53722 12.95116 39744 ft 465 kts 288°
2026-05-05 15:11 48.56071 12.86093 39744 ft 466 kts 288°
2026-05-05 15:11 48.58467 12.76851 39748 ft 466 kts 288°
2026-05-05 15:12 48.60806 12.67797 39752 ft 466 kts 288°
2026-05-05 15:12 48.63161 12.58646 39754 ft 466 kts 288°
2026-05-05 15:13 48.65509 12.49485 39751 ft 467 kts 288°
2026-05-05 15:13 48.67830 12.40391 39754 ft 467 kts 288°
2026-05-05 15:14 48.70208 12.31023 39758 ft 477 kts 287°
2026-05-05 15:14 48.72589 12.21605 39757 ft 481 kts 287°
2026-05-05 15:15 48.74833 12.11973 39766 ft 478 kts 280°
2026-05-05 15:15 48.76076 12.02111 39773 ft 477 kts 277°
2026-05-05 15:16 48.77172 11.92228 39789 ft 477 kts 276°
2026-05-05 15:16 48.78242 11.82245 39797 ft 477 kts 276°
2026-05-05 15:17 48.79306 11.72184 39799 ft 478 kts 276°
2026-05-05 15:17 48.80346 11.62283 39802 ft 478 kts 276°
2026-05-05 15:18 48.81215 11.53977 39805 ft 478 kts 276°
2026-05-05 15:18 48.82234 11.44049 39802 ft 479 kts 276°
2026-05-05 15:19 48.83444 11.32395 39797 ft 480 kts 278°
2026-05-05 15:19 48.85148 11.24231 39799 ft 487 kts 292°
2026-05-05 15:20 48.88931 11.15764 39502 ft 490 kts 310°
2026-05-05 15:20 48.91369 11.12102 38819 ft 492 kts 313°
2026-05-05 15:20 48.93632 11.08918 38045 ft 488 kts 314°
2026-05-05 15:21 48.94834 11.07264 37394 ft 485 kts 314°
2026-05-05 15:21 48.96019 11.05645 36628 ft 485 kts 314°
2026-05-05 15:21 48.98608 11.02103 35143 ft 498 kts 314°
2026-05-05 15:21 49.01132 10.98627 34395 ft 499 kts 314°
2026-05-05 15:22 49.03778 10.94958 33521 ft 502 kts 314°
2026-05-05 15:22 49.06375 10.91331 32609 ft 505 kts 314°
2026-05-05 15:22 49.08919 10.87759 31737 ft 507 kts 314°
2026-05-05 15:22 49.11531 10.84089 30821 ft 509 kts 314°
2026-05-05 15:23 49.14162 10.80366 29835 ft 512 kts 314°
2026-05-05 15:23 49.16730 10.76719 29081 ft 509 kts 314°
2026-05-05 15:23 49.19303 10.73064 28448 ft 503 kts 314°
2026-05-05 15:23 49.21817 10.69401 27790 ft 497 kts 312°
2026-05-05 15:24 49.24199 10.65603 27131 ft 492 kts 311°
2026-05-05 15:24 49.26579 10.61767 26468 ft 488 kts 311°
2026-05-05 15:24 49.28926 10.58015 25825 ft 484 kts 311°
2026-05-05 15:24 49.31259 10.54302 25179 ft 480 kts 311°
2026-05-05 15:25 49.33527 10.50698 24556 ft 476 kts 311°
2026-05-05 15:25 49.35788 10.47008 24058 ft 471 kts 308°
2026-05-05 15:25 49.37760 10.43023 23887 ft 471 kts 303°
2026-05-05 15:25 49.39647 10.38883 23839 ft 471 kts 302°
2026-05-05 15:26 49.41503 10.34795 23839 ft 469 kts 302°
2026-05-05 15:26 49.43373 10.30686 23725 ft 455 kts 302°
2026-05-05 15:26 49.45130 10.26829 23213 ft 433 kts 302°
2026-05-05 15:26 49.46816 10.23120 21903 ft 422 kts 302°
2026-05-05 15:27 49.48507 10.19385 20516 ft 430 kts 302°
2026-05-05 15:27 49.50221 10.15592 19885 ft 428 kts 302°
2026-05-05 15:27 49.51906 10.11871 19656 ft 414 kts 302°
2026-05-05 15:27 49.53538 10.08265 19320 ft 407 kts 302°
2026-05-05 15:28 49.55166 10.04676 18923 ft 407 kts 302°
2026-05-05 15:28 49.56800 10.01042 18508 ft 406 kts 302°
2026-05-05 15:28 49.58392 9.97499 18099 ft 404 kts 302°
2026-05-05 15:28 49.59986 9.93959 17649 ft 400 kts 302°
2026-05-05 15:29 49.61662 9.90538 17268 ft 400 kts 308°
2026-05-05 15:29 49.63563 9.87422 16893 ft 398 kts 313°
2026-05-05 15:29 49.65531 9.84427 16524 ft 396 kts 314°
2026-05-05 15:29 49.67494 9.81454 16183 ft 394 kts 314°
2026-05-05 15:30 49.69426 9.78521 15818 ft 392 kts 314°
2026-05-05 15:30 49.71366 9.75569 15455 ft 390 kts 314°
2026-05-05 15:30 49.73299 9.72620 15124 ft 388 kts 314°
2026-05-05 15:30 49.75216 9.69687 14563 ft 388 kts 314°
2026-05-05 15:31 49.77143 9.66726 13835 ft 389 kts 314°
2026-05-05 15:31 49.79053 9.63776 13066 ft 390 kts 314°
2026-05-05 15:31 49.80955 9.60834 12265 ft 390 kts 314°
2026-05-05 15:31 49.82843 9.57906 11463 ft 373 kts 314°
2026-05-05 15:32 49.84651 9.55106 10691 ft 362 kts 314°
2026-05-05 15:32 49.86424 9.52356 9947 ft 359 kts 314°
2026-05-05 15:32 49.88180 9.49625 9153 ft 355 kts 314°
2026-05-05 15:32 49.89908 9.46940 8557 ft 349 kts 314°
2026-05-05 15:33 49.91618 9.44283 8146 ft 347 kts 314°
2026-05-05 15:33 49.93308 9.41659 7867 ft 345 kts 314°
2026-05-05 15:33 49.94975 9.39073 7812 ft 327 kts 314°
2026-05-05 15:33 49.96563 9.36617 7815 ft 306 kts 314°
2026-05-05 15:34 49.98031 9.34347 7628 ft 295 kts 314°
2026-05-05 15:34 49.99486 9.32098 7158 ft 295 kts 314°
2026-05-05 15:34 50.00927 9.29877 6646 ft 284 kts 314°
2026-05-05 15:34 50.02291 9.27786 6064 ft 274 kts 314°
2026-05-05 15:35 50.03617 9.25767 5451 ft 265 kts 314°
2026-05-05 15:35 50.04918 9.23792 5076 ft 250 kts 314°
2026-05-05 15:35 50.06121 9.21975 4988 ft 239 kts 314°
2026-05-05 15:35 50.07307 9.20186 4975 ft 228 kts 314°
2026-05-05 15:36 50.08414 9.18530 4973 ft 218 kts 314°
2026-05-05 15:36 50.09510 9.16889 4990 ft 217 kts 314°
2026-05-05 15:36 50.10593 9.15263 4855 ft 217 kts 313°
2026-05-05 15:36 50.11673 9.13637 4510 ft 215 kts 314°
2026-05-05 15:37 50.12544 9.11765 4133 ft 211 kts 289°
2026-05-05 15:37 50.12854 9.09562 4000 ft 208 kts 275°
2026-05-05 15:37 50.13013 9.07327 3983 ft 208 kts 274°
2026-05-05 15:37 50.13160 9.05089 3969 ft 200 kts 273°
2026-05-05 15:38 50.13294 9.03022 3978 ft 188 kts 274°
2026-05-05 15:38 50.13420 9.01005 3985 ft 187 kts 273°
2026-05-05 15:38 50.13432 9.00033 3988 ft 186 kts 266°
2026-05-05 15:38 50.13238 8.98009 3983 ft 185 kts 253°
2026-05-05 15:39 50.12856 8.96115 3985 ft 184 kts 250°
2026-05-05 15:39 50.12442 8.94220 3981 ft 184 kts 249°
2026-05-05 15:39 50.12028 8.92319 3985 ft 185 kts 250°
2026-05-05 15:39 50.11604 8.90463 3987 ft 185 kts 249°
2026-05-05 15:40 50.11158 8.88590 3992 ft 185 kts 248°
2026-05-05 15:40 50.10711 8.86722 3987 ft 184 kts 248°
2026-05-05 15:40 50.10262 8.84848 3897 ft 185 kts 248°
2026-05-05 15:40 50.09815 8.82968 3680 ft 184 kts 249°
2026-05-05 15:41 50.09374 8.81117 3431 ft 182 kts 248°
2026-05-05 15:41 50.08933 8.79271 3179 ft 181 kts 248°
2026-05-05 15:41 50.08493 8.77427 2938 ft 180 kts 249°
2026-05-05 15:41 50.08057 8.75603 2698 ft 178 kts 249°
2026-05-05 15:42 50.07633 8.73825 2452 ft 170 kts 249°
2026-05-05 15:42 50.07246 8.72208 2240 ft 154 kts 250°
2026-05-05 15:42 50.06884 8.70689 2034 ft 142 kts 249°
2026-05-05 15:42 50.06559 8.69327 1852 ft 129 kts 249°
2026-05-05 15:43 50.06250 8.68035 1690 ft 125 kts 249°
2026-05-05 15:43 50.05945 8.66759 1516 ft 128 kts 249°
2026-05-05 15:43 50.05636 8.65464 1351 ft 129 kts 249°
2026-05-05 15:43 50.05319 8.64145 1173 ft 129 kts 250°
2026-05-05 15:44 50.05007 8.62836 981 ft 129 kts 249°
2026-05-05 15:44 50.04691 8.61514 814 ft 130 kts 249°
2026-05-05 15:44 50.04378 8.60204 639 ft 129 kts 249°
2026-05-05 15:44 50.04072 8.58928 464 ft 128 kts 250°
2026-05-05 15:45 50.03771 8.57682 375 ft 117 kts 243°
2026-05-05 15:45 50.03549 8.56742 367 ft 60 kts 253°
2026-05-05 15:45 50.03422 8.56224 369 ft 39 kts 250°
2026-05-05 15:45 50.03368 8.55991 368 ft 20 kts 250°
2026-05-05 15:46 50.03317 8.55780 368 ft 20 kts 248°
2026-05-05 15:46 50.03281 8.55656 368 ft 0 kts 245°
2026-05-05 15:46 50.03269 8.55630 364 ft 11 kts 226°
2026-05-05 15:46 50.03208 8.55549 371 ft 10 kts 221°
2026-05-05 15:47 50.03162 8.55486 371 ft 8 kts 221°
2026-05-05 15:47 50.03137 8.55455 369 ft 6 kts 213°
2026-05-05 15:47 50.03111 8.55444 370 ft 0 kts 182°
2026-05-05 15:48 50.03099 8.55447 370 ft 5 kts 172°
2026-05-05 15:48 50.03082 8.55466 373 ft 2 kts 127°
2026-05-05 15:48 50.03071 8.55498 368 ft 5 kts 112°
2026-05-05 15:49 50.03074 8.55555 372 ft 6 kts 72°
2026-05-05 15:49 50.03091 8.55629 373 ft 9 kts 70°
2026-05-05 15:49 50.03115 8.55730 372 ft 11 kts 69°
2026-05-05 15:49 50.03144 8.55851 372 ft 14 kts 69°
2026-05-05 15:50 50.03169 8.55956 369 ft 11 kts 70°
2026-05-05 15:50 50.03197 8.56078 370 ft 13 kts 70°
2026-05-05 15:50 50.03233 8.56225 375 ft 15 kts 69°
2026-05-05 15:50 50.03272 8.56386 368 ft 13 kts 69°
2026-05-05 15:51 50.03308 8.56537 373 ft 16 kts 69°
2026-05-05 15:51 50.03315 8.56633 374 ft 8 kts 100°
2026-05-05 15:51 50.03292 8.56691 374 ft 0 kts 136°
2026-05-05 15:51 50.03289 8.56695 375 ft 4 kts 135°
2026-05-05 15:52 50.03274 8.56768 372 ft 8 kts 103°
2026-05-05 15:52 50.03235 8.56849 369 ft 11 kts 146°
2026-05-05 15:52 50.03161 8.56899 374 ft 11 kts 160°
2026-05-05 15:52 50.03084 8.56951 372 ft 13 kts 150°
2026-05-05 15:53 50.03052 8.57015 372 ft 0 kts 117°
2026-05-05 15:53 50.03050 8.57021 371 ft 4 kts 117°
2026-05-05 15:53 50.03022 8.57109 374 ft 10 kts 114°
2026-05-05 15:54 50.03026 8.57153 373 ft 0 kts 54°
2026-05-05 15:54 50.03041 8.57178 375 ft 8 kts 46°
2026-05-05 15:54 50.03083 8.57207 374 ft 5 kts 25°
2026-05-05 15:54 50.03094 8.57216 376 ft 0 kts 25°